Other Public Products
Issued by NWS Grand Forks, ND

Home | Current Version | Previous Version | Graphics & Text | Print | Product List | Glossary On
Versions: 1 2 3 4 5 6 7 8 9 10 11 12 13 14 15 16 17 18 19 20 21 22 23 24 25 26 27 28 29 30 31 32 33 34 35 36 37 38 39 40 41 42 43 44 45 46 47 48 49 50
000
FPUS83 KFGF 301410
OPUFGF
PRAIRIE TO PINES WEATHER ROUNDUP
NATIONAL WEATHER SERVICE EASTERN NORTH DAKOTA/GRAND FORKS ND
900 AM CDT FRI SEP 30 2016

 **SATELLITE DATA USED TO AUGMENT SKY COVER AT AUTOMATED STATIONS**
 *****  WEATHER ACROSS EASTERN NORTH DAKOTA  *****

CITY           SKY/WX    TMP DP  RH WIND       PRES   REMARKS
GRAND FORKS    MOSUNNY   50  47  89 S12       30.32S
GRAND FORKS AF MOSUNNY   48  47  95 S9        30.31S
GRAND CITY NWS   N/A     48 N/A N/A SE16        N/A
BUXTON         NOT AVBL
DEVILS LAKE    SUNNY     52  47  83 SE14      30.25F
FARGO          SUNNY     54  48  80 SE12      30.33S
WAHPETON ARPT  SUNNY     48  45  87 SE9       30.35S
$$

 *****  WEATHER ACROSS CENTRAL AND WESTERN NORTH DAKOTA  *****

CITY           SKY/WX    TMP DP  RH WIND       PRES   REMARKS
JAMESTOWN      SUNNY     50  47  89 S13       30.25F
BISMARCK       CLOUDY    53  46  77 S12       30.17S
MINOT          CLOUDY    55  47  74 SE12      30.10F
MINOT AFB      CLOUDY    51  47  85 SE15      30.08
GARRISON         N/A     53  47  79 SE10      30.11F
WILLISTON      CLOUDY    58  47  66 CALM      30.01F
DICKINSON      CLOUDY    53  44  71 SE16      30.05R
HETTINGER      CLOUDY    54  42  64 SE16      30.10R
$$

 *****  OTHER OBSERVATIONS NORTHEAST NORTH DAKOTA  *****

CITY           SKY/WX    TMP DP  RH WIND       PRES   REMARKS
WALHALLA       FAIR      46  43  87 SE9       30.29S
LANGDON        FAIR      52  48  87 SE13      30.26F
CAVALIER       FAIR      48  46  93 S7        30.30F
GRAFTON        FAIR      48  48 100 SE9       30.33S
CANDO          FAIR      50  50 100 SE13      30.25F
FORT TOTTEN      N/A     52  50  92 S13       29.95
ROLLA          FAIR      48  48 100 S17       30.22F
RUGBY          FAIR      52  46  82 SE15G24   30.17F
 ***** THE ABOVE OBSERVATIONS ARE NON NWS ARE NOT QUALITY
        CONTROLLED AND MAY MIS-REPORT RAIN FOR SNOW...
$$

 *****  OTHER OBSERVATIONS SOUTHEAST NORTH DAKOTA *****

CITY           SKY/WX    TMP DP  RH WIND       PRES   REMARKS
COOPERSTOWN    FAIR      48  46  93 SE8       30.29S
VALLEY CITY    FAIR      48  48 100 S9        30.31F
OAKES          NOT AVBL
GWINNER        FAIR      48  46  93 SE7       30.32R
BUFFALO        NOT AVBL
WYNDMERE       NOT AVBL
 ***** THE ABOVE OBSERVATIONS ARE NON NWS ARE NOT QUALITY
       CONTROLLED AND MAY MIS-REPORT RAIN FOR SNOW...
$$

  *****  WEATHER ACROSS NORTHERN MINNESOTA  *****

CITY           SKY/WX    TMP DP  RH WIND       PRES   REMARKS
FLAG ISLAND    CLOUDY    54  48  82 SE16      30.37S
WARROAD        CLOUDY    52  48  87 SE9       30.38S
ROSEAU         HAZE      52  46  82 SE8       30.37R VSB 1/4
HALLOCK        MOSUNNY   52  48  87 SE10      30.32S
THF RVR FALLS  SUNNY     49  47  93 SE10      30.36S
HALSTAD          N/A     52  48  86 SE9         N/A
FOSSTON        FOG       46  46 100 SE6       30.38R VSB 1
BAUDETTE       PTSUNNY   50  46  86 SE7       30.41S
WASKISH        FOG       46  45  93 SE7       30.41S VSB 1/2
CROOKSTON      SUNNY     52  48  87 SE9       30.34S
$$
  *****  WEATHER ACROSS CENTRAL AND WEST MINNESOTA  *****

CITY           SKY/WX    TMP DP  RH WIND       PRES   REMARKS
BEMIDJI        FOG       48  48 100 SE6       30.40S VSB 1/4
PARK RAPIDS    FOG       51  49  92 SE10      30.39S VSB 1/2
WADENA         DRZL/FOG  46  46 100 SE9       30.39S VSB<1/4
DETROIT LAKES  FOG       48  46  93 SE9       30.38S VSB 1/4
MOORHEAD       SUNNY     52  48  87 SE8       30.34S
FERGUS FALLS   SUNNY     50  50 100 E8        30.38S
ELBOW LAKE     FOG       49  49 100 SE9       30.36S VSB 3/4
MORRIS MN      SUNNY     52  50  93 SE7       30.35S
STAPLES        FOG       48  46  93 SE3       30.39F VSB 3/4
WHEATON        NOT AVBL
$$
  *****  WEATHER ELSEWHERE ACROSS MINNESOTA  *****

CITY           SKY/WX    TMP DP  RH WIND       PRES   REMARKS
DULUTH         CLOUDY    52  50  93 E8        30.44R
INTRNTL FALLS  FOG       46  46 100 SE7       30.43F VSB 1/2
ELY            CLOUDY    48  46  93 SE5       30.45F
CLOQUET        CLOUDY    52  48  87 E5        30.43S
BRAINERD       CLOUDY    51  49  92 VRB3      30.41S
HIBBING        CLOUDY    50  48  93 SE7       30.44F
ALEXANDRIA     FOG       49  49 100 SE8       30.39S VSB 1/4
SAINT CLOUD    FOG       51  51 100 E5        30.39S VSB 3/4
MINNEAPOLIS    CLOUDY    52  49  89 N7        30.38S
$$

  *****  WEATHER ACROSS SOUTH DAKOTA  *****

CITY           SKY/WX    TMP DP  RH WIND       PRES   REMARKS
SIOUX FALLS    MOSUNNY   52  47  83 CALM      30.34S
BROOKINGS      SUNNY     53  49  86 SE8       30.33S
WATERTOWN      SUNNY     53  48  83 SE7       30.33R
HURON          CLOUDY    50  46  86 S9G17     30.30R
SISSETON         N/A     47  46  97 S7        30.34R
ABERDEEN       MOSUNNY   53  47  79 S12       30.30R
MITCHELL       SUNNY     50  46  86 E5        30.31S
PIERRE         CLOUDY    54  45  71 SE10      30.20S
MOBRIDGE       PTSUNNY   58  46  64 SE22G31   30.15F
RAPID CITY     MOSUNNY   54  43  66 SE8       30.09S
$$

  *****  SOME WEATHER IN NEARBY STATES *****

CITY           SKY/WX    TMP DP  RH WIND       PRES   REMARKS
GLASGOW MT     MOCLDY    55  47  74 S9        29.96R
GREAT FALLS MT CLOUDY    57  45  64 SW14      30.02S
CHEYENNE WY    CLOUDY    57  45  64 NW5       30.27R
SCOTTSBLUFF NE MOSUNNY   47  40  76 E9        30.19F
OMAHA NE       MOSUNNY   51  46  83 N7        30.31S
DES MOINES IA  MOSUNNY   58  51  78 NE9       30.27S
DAVENPORT IA   CLOUDY    59  56  89 N14       30.20F
CHICAGO IL     CLOUDY    62  59  90 NE10      30.14S FOG
EAU CLAIRE WI  SUNNY     53  49  86 NE9       30.35F
LA CROSSE WI   CLOUDY    56  53  90 NW7       30.31F
$$

  *****  SOME NATIONAL WEATHER *****

CITY           SKY/WX    TMP DP  RH WIND       PRES   REMARKS
LA GUARDIA NY  LGT RAIN  62  55  77 NE24G37   30.30S
RALEIGH NC     TSTM      74  71  91 SE7       30.03R
ATLANTA GA     SUNNY     60  51  72 NW5       30.06R
NEW ORLEANS LA MOSUNNY   76  58  53 NE10      30.12R
OKLAHOMA CITY  MOSUNNY   59  51  75 NE7       30.26S
ALBUQUERQUE NM MOSUNNY   58  53  84 SE3       30.33S
SALT LAKE CITY MOCLDY    63  49  60 SE9       30.19R
LOS ANGELES CA CLEAR     69  62  78 N3        30.02S
BOISE ID       PTCLDY    67  43  41 SE12      30.03F
SEATTLE WA     MOCLDY    49  46  90 SE6       30.05S FOG
$$

*** WEATHER ACROSS MANITOBA...SASKATCHEWAN AND ONTARIO ***
                ***ONTARIO***

CITY           SKY/WX    TMP DP  RH WIND       PRES   REMARKS
GERALDTON      PTSUNNY   52  50  93 NE3       30.51F
THUNDER BAY    FOG       48  48 100 SW5       30.48S VSB 3/8
SIOUX LOOKOUT  PTSUNNY   50  46  87 SE5       30.47S
TORONTO        PTSUNNY   63  52  67 E12G25    30.32R
BIG TROUT LK   MOSUNNY   54  48  82 SW9       30.41F
PICKLE LAKE    PTSUNNY   48  45  87 S3        30.48S
DRYDEN         CLOUDY    50  46  87 E5        30.44S
KENORA         CLOUDY    52  48  87 SE7       30.40F
$$
                *** MANITOBA***

CITY           SKY/WX    TMP DP  RH WIND       PRES   REMARKS
BRANDON        PTSUNNY   50  46  87 SE8       30.20F
DAUPHIN        PTSUNNY   50  46  87 E5        30.18S
ISLAND LAKE    MOSUNNY   52  46  82 S10       30.32F
PILOT MOUND      N/A     50  46  87 S15G21      N/A
THE PAS        PTCLDY    52  50  93 SE9       30.12F
THOMPSON       LGT RAIN  50  48  93 E3        30.23S
WINNIPEG       MOSUNNY   50  46  87 S13G20    30.31F
LYNN LAKE      CLOUDY    41  41 100 NE5       30.23S
CHURCHILL      MOSUNNY   45  41  87 NE8       30.31R
$$
                ***SASKATCHEWAN***

CITY           SKY/WX    TMP DP  RH WIND       PRES   REMARKS
ESTEVAN        PTSUNNY   50  46  87 E13       30.05F
KINDERSLEY     PTCLDY    45  45 100 NE9       29.97F
LLOYDMINSTER   MOCLDY    46  45  93 NE7       30.03F
PRINCE ALBERT  MOCLDY    48  46  93 E8        30.04S
REGINA         MOCLDY    48  45  87 SE16      30.02S
YORKTON        CLEAR     50  45  81 SE13G18   30.09S
N. BATTLEFORD  CLEAR     46  46 100 NE8       30.02F
LA RONGE       CLOUDY    50  48  93 NE13      30.13S   C1F1C2F2C3F3C4F4C5F5C6F6C7F7C8F8C9F9CaFaCbFbCcFcCdFdCe!



USA.gov is the U.S. government's official web portal to all federal, state and local government web resources and services.